Time,TemperatureF,DewpointF,PressureIn,WindDirection,WindDirectionDegrees,WindSpeedMPH,WindSpeedGustMPH,Humidity,HourlyPrecipIn,Conditions,Clouds,dailyrainin,SoftwareType,DateUTC
2013-11-13 00:22:00,36.0,21.0,30.35,North,355,2.0,6.0,54,0.00,,,0.00,,2013-11-13 06:22:00,
2013-11-13 00:42:00,36.0,21.0,30.35,North,9,1.0,6.0,55,0.00,,,0.00,,2013-11-13 06:42:00,
2013-11-13 00:52:00,36.0,21.0,30.35,NNE,17,1.0,6.0,54,0.00,,,0.00,,2013-11-13 06:52:00,
2013-11-13 01:11:00,36.0,21.0,30.35,NNW,329,2.0,7.0,54,0.00,,,0.00,,2013-11-13 07:11:00,
2013-11-13 01:22:00,36.0,21.0,30.35,NNW,338,1.0,5.0,55,0.00,,,0.00,,2013-11-13 07:22:00,
2013-11-13 01:42:00,35.0,20.0,30.35,North,355,1.0,6.0,55,0.00,,,0.00,,2013-11-13 07:42:00,
2013-11-13 01:52:00,35.0,20.0,30.35,NNW,340,1.0,5.0,55,0.00,,,0.00,,2013-11-13 07:52:00,
2013-11-13 02:22:00,35.0,23.0,30.35,NNW,343,0.0,1.0,62,0.00,,,0.00,,2013-11-13 08:22:00,
2013-11-13 02:42:00,33.0,24.0,30.35,NNW,343,0.0,0.0,70,0.00,,,0.00,,2013-11-13 08:42:00,
2013-11-13 02:52:00,33.0,25.0,30.35,NNW,342,0.0,0.0,71,0.00,,,0.00,,2013-11-13 08:52:00,
2013-11-13 03:11:00,33.0,25.0,30.35,NNW,342,0.0,1.0,71,0.00,,,0.00,,2013-11-13 09:11:00,
2013-11-13 03:21:00,32.0,24.0,30.35,NNW,342,0.0,1.0,72,0.00,,,0.00,,2013-11-13 09:21:00,
2013-11-13 03:43:00,32.0,24.0,30.35,NNW,342,0.0,0.0,73,0.00,,,0.00,,2013-11-13 09:43:00,
2013-11-13 03:52:00,32.0,25.0,30.35,NNW,342,0.0,2.0,74,0.00,,,0.00,,2013-11-13 09:52:00,
2013-11-13 04:13:00,31.0,24.0,30.34,NNW,342,0.0,1.0,75,0.00,,,0.00,,2013-11-13 10:13:00,
2013-11-13 04:23:00,31.0,24.0,30.35,NNW,342,0.0,1.0,76,0.00,,,0.00,,2013-11-13 10:23:00,
2013-11-13 04:42:00,31.0,25.0,30.35,NNW,342,0.0,0.0,77,0.00,,,0.00,,2013-11-13 10:42:00,
2013-11-13 04:52:00,31.0,25.0,30.35,NNW,342,0.0,1.0,77,0.00,,,0.00,,2013-11-13 10:52:00,
2013-11-13 05:12:00,30.0,24.0,30.34,NNW,342,0.0,1.0,79,0.00,,,0.00,,2013-11-13 11:12:00,
2013-11-13 05:22:00,30.0,24.0,30.34,NNW,342,0.0,0.0,79,0.00,,,0.00,,2013-11-13 11:22:00,
2013-11-13 05:42:00,29.0,24.0,30.35,NNW,342,0.0,0.0,80,0.00,,,0.00,,2013-11-13 11:42:00,
2013-11-13 05:52:00,29.0,24.0,30.35,NNW,342,0.0,2.0,81,0.00,,,0.00,,2013-11-13 11:52:00,
2013-11-13 06:11:00,29.0,24.0,30.34,NNW,342,0.0,2.0,81,0.00,,,0.00,,2013-11-13 12:11:00,
2013-11-13 06:22:00,29.0,24.0,30.34,NNW,342,0.0,0.0,82,0.00,,,0.00,,2013-11-13 12:22:00,
2013-11-13 06:42:00,29.0,24.0,30.34,NNW,342,0.0,1.0,82,0.00,,,0.00,,2013-11-13 12:42:00,
2013-11-13 06:52:00,29.0,25.0,30.34,NNW,342,0.0,1.0,83,0.00,,,0.00,,2013-11-13 12:52:00,
2013-11-13 07:11:00,28.0,24.0,30.34,NNW,342,0.0,1.0,83,0.00,,,0.00,,2013-11-13 13:11:00,
2013-11-13 07:21:00,28.0,24.0,30.34,NNW,342,0.0,0.0,84,0.00,,,0.00,,2013-11-13 13:21:00,
2013-11-13 07:42:00,28.0,24.0,30.34,NNW,342,0.0,0.0,85,0.00,,,0.00,,2013-11-13 13:42:00,
2013-11-13 07:52:00,29.0,25.0,30.34,NNW,342,0.0,1.0,84,0.00,,,0.00,,2013-11-13 13:52:00,
2013-11-13 08:11:00,31.0,26.0,30.35,NNW,342,0.0,2.0,80,0.00,,,0.00,,2013-11-13 14:11:00,
2013-11-13 08:22:00,32.0,25.0,30.35,North,5,0.0,3.0,75,0.00,,,0.00,,2013-11-13 14:22:00,
2013-11-13 08:42:00,34.0,26.0,30.35,North,360,0.0,4.0,72,0.00,,,0.00,,2013-11-13 14:42:00,
2013-11-13 08:53:00,35.0,26.0,30.35,NE,40,2.0,4.0,69,0.00,,,0.00,,2013-11-13 14:53:00,
2013-11-13 09:12:00,36.0,26.0,30.35,ENE,67,2.0,5.0,66,0.00,,,0.00,,2013-11-13 15:12:00,
2013-11-13 09:22:00,37.0,25.0,30.35,ENE,73,3.0,5.0,61,0.00,,,0.00,,2013-11-13 15:22:00,
2013-11-13 09:43:00,39.0,25.0,30.35,ESE,111,2.0,6.0,56,0.00,,,0.00,,2013-11-13 15:43:00,
2013-11-13 09:53:00,39.0,23.0,30.35,SE,142,2.0,8.0,53,0.00,,,0.00,,2013-11-13 15:53:00,
2013-11-13 10:23:00,41.0,22.0,30.34,South,173,3.0,7.0,47,0.00,,,0.00,,2013-11-13 16:23:00,
2013-11-13 10:43:00,42.0,23.0,30.33,SSE,155,1.0,7.0,46,0.00,,,0.00,,2013-11-13 16:43:00,
2013-11-13 10:53:00,43.0,23.0,30.33,SE,128,2.0,5.0,44,0.00,,,0.00,,2013-11-13 16:53:00,
2013-11-13 11:12:00,44.0,22.0,30.32,SE,131,2.0,8.0,41,0.00,,,0.00,,2013-11-13 17:12:00,
2013-11-13 11:23:00,44.0,21.0,30.31,North,355,1.0,6.0,40,0.00,,,0.00,,2013-11-13 17:23:00,
2013-11-13 11:52:00,45.0,22.0,30.29,East,99,1.0,5.0,40,0.00,,,0.00,,2013-11-13 17:52:00,
2013-11-13 12:12:00,46.0,24.0,30.28,SSE,157,0.0,4.0,41,0.00,,,0.00,,2013-11-13 18:12:00,
2013-11-13 12:23:00,47.0,23.0,30.27,SW,221,1.0,6.0,38,0.00,,,0.00,,2013-11-13 18:23:00,
2013-11-13 12:42:00,47.0,24.0,30.26,ESE,117,1.0,7.0,40,0.00,,,0.00,,2013-11-13 18:42:00,
2013-11-13 12:52:00,48.0,24.0,30.24,South,184,0.0,4.0,39,0.00,,,0.00,,2013-11-13 18:52:00,
2013-11-13 13:11:00,49.0,24.0,30.23,East,98,1.0,4.0,37,0.00,,,0.00,,2013-11-13 19:11:00,
2013-11-13 13:21:00,49.0,23.0,30.22,East,90,0.0,5.0,36,0.00,,,0.00,,2013-11-13 19:21:00,
2013-11-13 13:42:00,49.0,23.0,30.21,ENE,69,0.0,5.0,36,0.00,,,0.00,,2013-11-13 19:42:00,
2013-11-13 13:52:00,51.0,26.0,30.20,South,185,0.0,5.0,37,0.00,,,0.00,,2013-11-13 19:52:00,
2013-11-13 14:22:00,50.0,25.0,30.19,ESE,115,0.0,2.0,37,0.00,,,0.00,,2013-11-13 20:22:00,
2013-11-13 14:42:00,51.0,25.0,30.18,SE,128,0.0,7.0,36,0.00,,,0.00,,2013-11-13 20:42:00,
2013-11-13 14:52:00,51.0,24.0,30.17,East,89,3.0,7.0,35,0.00,,,0.00,,2013-11-13 20:52:00,
2013-11-13 15:11:00,50.0,23.0,30.17,SSE,153,0.0,3.0,35,0.00,,,0.00,,2013-11-13 21:11:00,
2013-11-13 15:22:00,51.0,25.0,30.16,WSW,244,1.0,7.0,36,0.00,,,0.00,,2013-11-13 21:22:00,
2013-11-13 15:43:00,51.0,26.0,30.16,ENE,59,1.0,5.0,37,0.00,,,0.00,,2013-11-13 21:43:00,
2013-11-13 15:53:00,51.0,25.0,30.15,East,89,0.0,4.0,36,0.00,,,0.00,,2013-11-13 21:53:00,
2013-11-13 16:13:00,51.0,24.0,30.15,SW,225,1.0,6.0,35,0.00,,,0.00,,2013-11-13 22:13:00,
2013-11-13 16:23:00,50.0,25.0,30.14,SE,135,0.0,5.0,38,0.00,,,0.00,,2013-11-13 22:23:00,
2013-11-13 16:42:00,50.0,25.0,30.14,ESE,114,0.0,2.0,38,0.00,,,0.00,,2013-11-13 22:42:00,
2013-11-13 16:53:00,50.0,26.0,30.14,ESE,119,0.0,3.0,39,0.00,,,0.00,,2013-11-13 22:53:00,
2013-11-13 17:11:00,49.0,26.0,30.13,East,101,1.0,3.0,40,0.00,,,0.00,,2013-11-13 23:11:00,
2013-11-13 17:22:00,49.0,26.0,30.13,ESE,122,0.0,4.0,40,0.00,,,0.00,,2013-11-13 23:22:00,
2013-11-13 17:43:00,48.0,28.0,30.12,East,101,0.0,2.0,45,0.00,,,0.00,,2013-11-13 23:43:00,
2013-11-13 17:53:00,46.0,28.0,30.11,East,101,0.0,1.0,49,0.00,,,0.00,,2013-11-13 23:53:00,
2013-11-13 18:11:00,45.0,29.0,30.11,East,101,0.0,0.0,53,0.00,,,0.00,,2013-11-14 00:11:00,
2013-11-13 18:22:00,43.0,29.0,30.12,East,101,0.0,0.0,57,0.00,,,0.00,,2013-11-14 00:22:00,
2013-11-13 18:42:00,42.0,30.0,30.12,East,101,0.0,0.0,61,0.00,,,0.00,,2013-11-14 00:42:00,
2013-11-13 18:52:00,42.0,29.0,30.12,East,101,0.0,1.0,60,0.00,,,0.00,,2013-11-14 00:52:00,
2013-11-13 19:11:00,42.0,29.0,30.12,East,101,0.0,0.0,60,0.00,,,0.00,,2013-11-14 01:11:00,
2013-11-13 19:21:00,42.0,30.0,30.12,East,101,0.0,0.0,62,0.00,,,0.00,,2013-11-14 01:21:00,
2013-11-13 19:42:00,41.0,30.0,30.12,East,101,0.0,0.0,64,0.00,,,0.00,,2013-11-14 01:42:00,
2013-11-13 19:52:00,40.0,30.0,30.12,East,101,0.0,0.0,68,0.00,,,0.00,,2013-11-14 01:52:00,
2013-11-13 20:12:00,39.0,30.0,30.11,East,101,0.0,0.0,70,0.00,,,0.00,,2013-11-14 02:12:00,
2013-11-13 20:22:00,39.0,31.0,30.11,East,101,0.0,0.0,72,0.00,,,0.00,,2013-11-14 02:22:00,
2013-11-13 21:11:00,39.0,30.0,30.10,ESE,102,0.0,2.0,69,0.00,,,0.00,,2013-11-14 03:11:00,
2013-11-13 21:21:00,38.0,29.0,30.10,ESE,102,0.0,1.0,69,0.00,,,0.00,,2013-11-14 03:21:00,
2013-11-13 21:44:00,37.0,28.0,30.09,ESE,102,0.0,0.0,71,0.00,,,0.00,,2013-11-14 03:44:00,
2013-11-13 21:54:00,37.0,28.0,30.08,ESE,102,0.0,1.0,71,0.00,,,0.00,,2013-11-14 03:54:00,
2013-11-13 22:14:00,37.0,28.0,30.08,ESE,102,0.0,0.0,71,0.00,,,0.00,,2013-11-14 04:14:00,
2013-11-13 22:24:00,37.0,29.0,30.08,ESE,102,0.0,1.0,72,0.00,,,0.00,,2013-11-14 04:24:00,
2013-11-13 22:43:00,36.0,28.0,30.07,ESE,102,0.0,0.0,71,0.00,,,0.00,,2013-11-14 04:43:00,
2013-11-13 22:54:00,37.0,28.0,30.06,SE,140,0.0,2.0,70,0.00,,,0.00,,2013-11-14 04:54:00,
2013-11-13 23:13:00,36.0,28.0,30.06,SE,140,0.0,0.0,73,0.00,,,0.00,,2013-11-14 05:13:00,
2013-11-13 23:23:00,35.0,27.0,30.06,SE,140,0.0,1.0,73,0.00,,,0.00,,2013-11-14 05:23:00,
2013-11-13 23:44:00,35.0,27.0,30.05,SE,140,0.0,1.0,72,0.00,,,0.00,,2013-11-14 05:44:00,
2013-11-13 23:53:00,34.0,28.0,30.05,SE,140,0.0,0.0,77,0.00,,,0.00,,2013-11-14 05:53:00,